Location: Kalberh�ni
(46.4610°N, 7.2453°E)
Time: 22:23:40
(UTC+00:00)

Cosmos 1802 Rocket - Pass Details

Date: 29 October 2021
Orbit: 955 x 1010 km, 82.9° (Epoch: 30 November)

Event Time Altitude Azimuth Distance (km) Brightness Sun altitude
Rises 19:00:54 0° 196° (SSW) 3,619 7.1 -28.1°
Reaches altitude 10° 19:03:24 10° 199° (SSW) 2,678 6.4 -28.5°
Maximum altitude 19:09:28 66° 281° (W) 1,044 4.2 -29.5°
Drops below altitude 10° 19:15:38 10° 4° (N) 2,712 6.4 -30.6°
Sets 19:18:12 0° 7° (N) 3,669 7.1 -31.0°
